Date,TemperatureHighF,TemperatureAvgF,TemperatureLowF,DewpointHighF,DewpointAvgF,DewpointLowF,HumidityHigh,HumidityAvg,HumidityLow,PressureMaxIn,PressureMinIn,WindSpeedMaxMPH,WindSpeedAvgMPH,GustSpeedMaxMPH,PrecipitationSumIn
2013-4-1,41,32,19,36,29,16,95,88,67,29.77,29.47,15,4,20,0.12
2013-4-2,22,17,14,17,13,9,90,83,71,29.80,29.65,13,6,25,0.00
2013-4-3,24,20,15,18,14,9,89,77,67,30.10,29.79,18,8,27,0.00
2013-4-4,42,31,19,18,12,7,74,49,28,30.22,29.93,13,4,20,0.04
2013-4-5,41,32,22,27,21,16,91,66,43,29.92,29.73,16,4,20,0.00
2013-4-6,26,19,12,15,6,2,86,60,40,30.35,29.84,21,8,26,0.00
2013-4-7,45,36,19,32,18,6,64,48,38,30.34,29.85,19,6,28,0.01
2013-4-8,44,36,32,33,30,27,94,78,62,30.11,29.87,12,4,17,0.00
2013-4-9,39,35,33,38,33,28,97,93,68,30.05,29.86,17,5,32,0.65
2013-4-10,42,38,34,38,35,30,98,90,73,29.99,29.92,9,2,12,0.04
2013-4-11,35,30,24,29,19,13,93,65,46,30.21,29.89,13,5,18,0.00
2013-4-12,27,26,23,25,18,12,93,75,56,30.23,29.87,30,14,40,0.00
2013-4-13,39,32,26,34,30,24,96,91,80,29.91,29.81,19,3,28,0.10
2013-4-14,37,33,30,34,31,29,95,91,77,30.20,29.88,7,2,15,0.26
2013-4-15,49,39,23,31,27,22,96,66,42,30.38,30.21,11,3,16,0.01
2013-4-16,51,46,35,48,39,31,96,79,62,30.30,29.90,17,5,24,0.32
2013-4-17,44,38,29,42,28,18,92,68,44,30.37,29.99,13,6,21,0.00
2013-4-18,47,37,28,38,25,16,83,61,43,30.41,30.00,20,7,29,0.04
2013-4-19,67,57,46,55,49,38,92,75,51,29.99,29.47,14,6,30,0.07
2013-4-20,44,37,27,43,28,21,95,73,46,30.16,29.58,17,5,26,0.34
2013-4-21,36,28,22,23,17,11,89,66,37,30.74,30.18,11,5,22,0.02
2013-4-22,45,34,19,19,15,11,88,48,27,30.80,30.60,16,7,24,0.00
2013-4-23,42,35,26,34,27,18,95,73,50,30.61,30.19,22,9,27,0.00
2013-4-24,66,50,36,49,40,26,97,73,23,30.18,29.66,20,5,30,0.00
2013-4-25,57,41,28,47,30,21,91,69,42,30.32,29.63,14,4,26,0.04
2013-4-26,51,38,24,32,25,22,91,63,36,30.46,30.32,16,3,17,0.00
2013-4-27,53,40,28,33,28,24,94,66,35,30.45,30.32,8,1,12,0.00
2013-4-28,61,48,29,33,29,26,92,54,27,30.36,30.19,9,3,17,0.00
2013-4-29,64,53,42,40,35,31,73,52,32,30.21,30.12,11,4,17,0.00
2013-4-30,66,54,38,44,39,33,88,59,36,30.31,30.20,11,2,14,0.00